P/2002 EJ57 ( LINEAR )

Japanese version
Home page
Updated on June 5, 2002

---------------------------------------------------------------------

* Profile

Discovery Date March 13, 2002
Magnitude 18.5 mag
Discoverer Lincoln Laboratory Near-Earth Asteroid Research project

* Orbital Elements

T 2001 Dec. 19.2307 TT                                  MPC
q   2.635918             (2000.0)            P               Q
n   0.0595996      Peri.  166.9259      -0.7354490      -0.6762263
a   6.490931       Node   330.3837      +0.6136125      -0.6378891
e   0.593908       Incl.    4.9697      +0.2873925      -0.3685316
P  16.5
>From 52 observations 2002 Mar. 10-May 12.

* Finding Charts

* Magnitudes Graph

        m1 = 12.5 + 5 log d + 10.0 log r

---------------------------------------------------------------------

The orbital elements are calculated by Dr. Brian G. Marsden and printed on M.P.E.C. 2002-K29.
The charts are made with StellaNavigator Ver.2.0 for Windows (AstroArts / ASCII).
The magnitudes graphs are made with Comet for Windows.

---------------------------------------------------------------------

Copyright(C) Seiichi Yoshida (comet@aerith.net). All rights reserved.